Location: Dead Woman Crossing
(43.5369°N, 106.3228°W)
Time: 00:48:10
(UTC+00:00)

BEESAT 2 - Pass Details

Date: 26 June 2022
Orbit: 481 x 508 km, 64.9° (Epoch: 07 August)

Event Time Altitude Azimuth Distance (km) Brightness Sun altitude
Rises 04:41:38 0° 319° (NW) 2,625 ? -15.1°
Reaches altitude 10° 04:43:54 10° 311° (NW) 1,736 ? -15.4°
Maximum altitude 04:47:30 38° 243° (WSW) 795 ? -15.7°
Enters shadow 04:49:20 23° 190° (S) 1,110 ? -15.9°
